Weather History for Kerrville, TX

Change the Weather History Date:

Wednesday, January 29, 2014

  Actual Average (KHDO) Record (KHDO)
Temperature  
Mean Temperature 31 °F -  
Max Temperature 45 °F 62 °F 89 °F (2013)
Min Temperature 17 °F 39 °F 21 °F (1997)
Degree Days  
Heating Degree Days 34    
Moisture  
Dew Point 11 °F    
Average Humidity 47    
Maximum Humidity 73    
Minimum Humidity 25    
Precipitation  
Precipitation 0.00 in - - ()
Sea Level Pressure  
Sea Level Pressure 30.32 in    
Wind  
Wind Speed 4 mph (SSE)    
Max Wind Speed 14 mph    
Max Gust Speed 17 mph    
Visibility 10 miles    
Events      
Averages and records for this station are not official NWS values.
T = Trace of Precipitation, MM = Missing Value Source: NWS Daily Summary

Daily Weather History Graph

Daily Weather History Graph

Search for Another Location

Airport:

Trip Planner

Search our weather history database for the weather conditions in past years. The results will help you decide how hot, cold, wet, or windy it might be!

Date:

Astronomy

Jan. 29, 2014 Rise Set
Actual Time 7:28 AM CST 6:11 PM CST
Civil Twilight 7:03 AM CST 6:36 PM CST
Nautical Twilight 6:34 AM CST 7:05 PM CST
Astronomical Twilight 6:05 AM CST 7:33 PM CST
Moon 6:05 AM CST (1/29) 5:11 PM CST (1/29)
Length of Visible Light 11h 33m
Length of Day
10h 42m
Waning Crescent, 2% of the Moon is Illuminated
Jan 29
Waning Crescent
Jan 30
New
Feb 6
First Quarter
Feb 14
Full
Feb 22
Last Quarter

Hourly Weather History & Observations

Time (CST) Temp. Windchill Dew Point Humidity Pressure Visibility Wind Dir Wind Speed Gust Speed Precip Events Conditions
12:15 AM 24.8 °F - 4.6 °F 42% 30.41 in 10.0 mi Calm Calm - N/A   Clear
12:35 AM 22.5 °F - 6.3 °F 50% 30.40 in 10.0 mi Calm Calm - N/A   Clear
12:55 AM 21.0 °F - 7.2 °F 55% 30.41 in 10.0 mi Calm Calm - N/A   Clear
1:15 AM 21.7 °F - 6.8 °F 53% 30.41 in 10.0 mi Calm Calm - N/A   Clear
1:35 AM 18.9 °F - 6.1 °F 58% 30.39 in 10.0 mi Calm Calm - N/A   Clear
1:55 AM 18.5 °F 11.7 °F 7.3 °F 62% 30.40 in 10.0 mi North 4.6 mph - N/A   Clear
2:15 AM 18.3 °F 13.1 °F 7.7 °F 63% 30.41 in 10.0 mi North 3.5 mph - N/A   Clear
2:35 AM 18.5 °F 11.7 °F 7.7 °F 63% 30.40 in 10.0 mi North 4.6 mph - N/A   Clear
2:55 AM 18.7 °F - 7.2 °F 61% 30.39 in 10.0 mi Calm Calm - N/A   Clear
3:15 AM 18.5 °F 13.3 °F 7.7 °F 63% 30.39 in 10.0 mi North 3.5 mph - N/A   Clear
3:35 AM 18.0 °F 11.1 °F 8.2 °F 66% 30.40 in 10.0 mi SW 4.6 mph - N/A   Clear
3:55 AM 18.5 °F 13.3 °F 10.4 °F 71% 30.38 in 10.0 mi NNW 3.5 mph - N/A   Clear
4:15 AM 17.6 °F 12.3 °F 8.8 °F 68% 30.38 in 10.0 mi WNW 3.5 mph - N/A   Clear
4:35 AM 18.5 °F 13.3 °F 9.3 °F 67% 30.38 in 10.0 mi WNW 3.5 mph - N/A   Clear
4:55 AM 18.5 °F - 8.6 °F 65% 30.37 in 10.0 mi Calm Calm - N/A   Clear
5:15 AM 17.6 °F 9.3 °F 9.7 °F 71% 30.36 in 10.0 mi North 5.8 mph - N/A   Clear
5:35 AM 17.2 °F - 9.9 °F 73% 30.36 in 10.0 mi Calm Calm - N/A   Clear
5:55 AM 18.5 °F - 10.8 °F 72% 30.37 in 10.0 mi Calm Calm - N/A   Clear
6:15 AM 18.5 °F - 10.2 °F 70% 30.38 in 10.0 mi Calm Calm - N/A   Clear
6:35 AM 18.5 °F 13.3 °F 10.4 °F 71% 30.40 in 10.0 mi West 3.5 mph - N/A   Clear
6:55 AM 18.5 °F 13.3 °F 10.6 °F 71% 30.39 in 10.0 mi NNW 3.5 mph - N/A   Clear
7:15 AM 18.5 °F 11.7 °F 10.6 °F 71% 30.39 in 10.0 mi NNW 4.6 mph - N/A   Clear
7:35 AM 21.0 °F 14.6 °F 8.1 °F 57% 30.39 in 10.0 mi NW 4.6 mph - N/A   Clear
7:55 AM 21.0 °F - 8.2 °F 58% 30.40 in 10.0 mi Calm Calm - N/A   Clear
8:15 AM 21.0 °F - 10.2 °F 63% 30.40 in 10.0 mi Calm Calm - N/A   Clear
8:35 AM 21.0 °F 16.2 °F 9.5 °F 61% 30.41 in 10.0 mi NNW 3.5 mph - N/A   Clear
8:55 AM 23.5 °F - 8.4 °F 53% 30.41 in 10.0 mi Calm Calm - N/A   Clear
9:15 AM 25.2 °F - 9.0 °F 50% 30.40 in 10.0 mi Calm Calm - N/A   Clear
9:35 AM 28.8 °F - 9.7 °F 45% 30.40 in 10.0 mi Calm Calm - N/A   Clear
9:55 AM 31.1 °F 26.4 °F 8.6 °F 39% 30.41 in 10.0 mi SE 4.6 mph - N/A   Clear
10:15 AM 33.1 °F 27.7 °F 9.0 °F 37% 30.41 in 10.0 mi ESE 5.8 mph - N/A   Clear
10:35 AM 33.4 °F 29.1 °F 8.2 °F 35% 30.41 in 10.0 mi SSE 4.6 mph - N/A   Clear
10:55 AM 33.4 °F 28.1 °F 7.9 °F 34% 30.41 in 10.0 mi ESE 5.8 mph - N/A   Clear
11:15 AM 36.0 °F 33.3 °F 8.1 °F 31% 30.40 in 10.0 mi SSE 3.5 mph - N/A   Clear
11:35 AM 37.8 °F 32.5 °F 9.9 °F 32% 30.40 in 10.0 mi SE 6.9 mph - N/A   Clear
11:55 AM 39.2 °F 34.2 °F 10.6 °F 31% 30.39 in 10.0 mi SSE 6.9 mph - N/A   Clear
12:15 PM 39.7 °F 36.5 °F 10.4 °F 30% 30.38 in 10.0 mi SSE 4.6 mph - N/A   Clear
12:35 PM 41.5 °F 37.8 °F 10.8 °F 28% 30.36 in 10.0 mi South 5.8 mph - N/A   Clear
12:55 PM 41.0 °F 36.4 °F 10.0 °F 28% 30.34 in 10.0 mi SSW 6.9 mph - N/A   Clear
1:15 PM 42.1 °F 39.2 °F 10.6 °F 28% 30.32 in 10.0 mi South 4.6 mph - N/A   Clear
1:35 PM 42.4 °F 36.1 °F 9.9 °F 26% 30.30 in 10.0 mi South 11.5 mph 17.3 mph N/A   Clear
1:55 PM 43.7 °F 38.1 °F 10.4 °F 26% 30.29 in 10.0 mi South 10.4 mph - N/A   Clear
2:15 PM 44.1 °F 39.5 °F 11.1 °F 26% 30.27 in 10.0 mi South 8.1 mph - N/A   Clear
2:35 PM 44.4 °F 39.0 °F 11.3 °F 26% 30.27 in 10.0 mi SSW 10.4 mph - N/A   Clear
2:55 PM 44.8 °F 38.3 °F 11.1 °F 26% 30.26 in 10.0 mi South 13.8 mph 17.3 mph N/A   Clear
3:15 PM 45.0 °F 39.3 °F 11.5 °F 26% 30.25 in 10.0 mi South 11.5 mph 17.3 mph N/A   Clear
3:35 PM 44.2 °F 38.4 °F 11.1 °F 26% 30.24 in 10.0 mi South 11.5 mph 16.1 mph N/A   Clear
3:55 PM 44.8 °F 38.7 °F 10.8 °F 25% 30.24 in 10.0 mi South 12.7 mph 17.3 mph N/A   Clear
4:15 PM 43.7 °F 36.9 °F 11.3 °F 27% 30.23 in 10.0 mi SSE 13.8 mph 17.3 mph N/A   Clear
4:35 PM 44.2 °F 37.6 °F 11.5 °F 26% 30.23 in 10.0 mi South 13.8 mph - N/A   Clear
4:55 PM 43.5 °F 37.9 °F 12.6 °F 29% 30.24 in 10.0 mi SSW 10.4 mph - N/A   Clear
5:15 PM 43.7 °F 37.7 °F 12.9 °F 29% 30.25 in 10.0 mi SSE 11.5 mph - N/A   Clear
5:35 PM 42.3 °F 36.8 °F 13.6 °F 31% 30.24 in 10.0 mi SSE 9.2 mph - N/A   Clear
5:55 PM 41.0 °F 35.2 °F 13.8 °F 33% 30.24 in 10.0 mi SSE 9.2 mph - N/A   Clear
6:15 PM 38.7 °F 32.4 °F 14.0 °F 37% 30.24 in 10.0 mi SSE 9.2 mph - N/A   Clear
6:35 PM 37.6 °F 33.1 °F 15.1 °F 40% 30.24 in 10.0 mi SE 5.8 mph - N/A   Clear
6:55 PM 36.0 °F 31.1 °F 16.2 °F 45% 30.24 in 10.0 mi SSE 5.8 mph - N/A   Clear
7:15 PM 33.4 °F 26.6 °F 15.4 °F 48% 30.24 in 10.0 mi SSE 8.1 mph - N/A   Clear
7:35 PM 33.4 °F 27.3 °F 14.9 °F 47% 30.24 in 10.0 mi SSE 6.9 mph - N/A   Clear
7:55 PM 33.4 °F 25.9 °F 15.6 °F 48% 30.23 in 10.0 mi SE 9.2 mph - N/A   Clear
8:15 PM 33.4 °F 26.6 °F 15.8 °F 48% 30.23 in 10.0 mi SSE 8.1 mph - N/A   Clear
8:35 PM 33.3 °F 27.1 °F 16.3 °F 50% 30.24 in 10.0 mi SSE 6.9 mph - N/A   Clear
8:55 PM 32.2 °F 25.0 °F 15.8 °F 51% 30.24 in 10.0 mi SSE 8.1 mph - N/A   Clear
9:15 PM 33.1 °F 26.1 °F 15.8 °F 49% 30.24 in 10.0 mi SSE 8.1 mph - N/A   Clear
9:35 PM 32.7 °F 25.0 °F 15.1 °F 48% 30.23 in 10.0 mi SE 9.2 mph - N/A   Clear
9:55 PM 33.1 °F 24.9 °F 14.7 °F 47% 30.23 in 10.0 mi SE 10.4 mph - N/A   Clear
10:15 PM 32.2 °F 24.4 °F 13.1 °F 45% 30.22 in 10.0 mi SE 9.2 mph - N/A   Clear
10:35 PM 32.2 °F 23.2 °F 12.9 °F 45% 30.22 in 10.0 mi SE 11.5 mph - N/A   Clear
10:55 PM 32.2 °F 23.8 °F 11.7 °F 43% 30.21 in 10.0 mi SSE 10.4 mph - N/A   Clear
11:15 PM 32.2 °F 23.2 °F 11.3 °F 42% 30.20 in 10.0 mi SE 11.5 mph - N/A   Clear
11:35 PM 31.5 °F 24.2 °F 11.3 °F 43% 30.20 in 10.0 mi SSE 8.1 mph - N/A   Clear
11:55 PM 31.1 °F 23.7 °F 12.6 °F 46% 30.19 in 10.0 mi SSE 8.1 mph - N/A   Clear